TimeCDT,TemperatureF,Dew PointF,Humidity,Sea Level PressureIn,VisibilityMPH,Wind Direction,Wind SpeedMPH,Gust SpeedMPH,PrecipitationIn,Events,Conditions,WindDirDegrees,DateUTC
12:53 AM,48.0,28.0,46,29.86,10.0,SSE,3.5,-,N/A,,Clear,150,2012-10-03 05:53:00
1:53 AM,45.0,28.9,53,29.86,10.0,SSE,5.8,-,N/A,,Clear,150,2012-10-03 06:53:00
2:53 AM,45.0,28.0,52,29.86,10.0,SSE,4.6,-,N/A,,Clear,160,2012-10-03 07:53:00
3:53 AM,42.1,28.9,60,29.86,10.0,SSE,5.8,-,N/A,,Clear,150,2012-10-03 08:53:00
4:53 AM,41.0,28.0,60,29.87,10.0,SE,5.8,-,N/A,,Clear,130,2012-10-03 09:53:00
5:53 AM,41.0,28.9,62,29.87,10.0,SE,9.2,-,N/A,,Clear,140,2012-10-03 10:53:00
6:53 AM,41.0,28.9,62,29.88,10.0,SE,5.8,-,N/A,,Clear,130,2012-10-03 11:53:00
7:53 AM,41.0,30.0,65,29.89,10.0,SE,8.1,-,N/A,,Clear,140,2012-10-03 12:53:00
8:53 AM,48.0,32.0,54,29.89,10.0,SE,5.8,-,N/A,,Clear,130,2012-10-03 13:53:00
9:53 AM,59.0,32.0,36,29.88,10.0,SSE,6.9,-,N/A,,Clear,160,2012-10-03 14:53:00
10:53 AM,66.9,32.0,27,29.87,10.0,SSW,6.9,-,N/A,,Clear,200,2012-10-03 15:53:00
11:53 AM,73.9,30.0,20,29.84,10.0,South,12.7,-,N/A,,Clear,180,2012-10-03 16:53:00
12:53 PM,77.0,28.0,17,29.82,10.0,SSE,18.4,-,N/A,,Clear,160,2012-10-03 17:53:00
1:53 PM,78.1,25.0,14,29.79,10.0,SE,20.7,25.3,N/A,,Clear,140,2012-10-03 18:53:00
2:53 PM,77.0,24.1,14,29.78,10.0,SSE,18.4,29.9,N/A,,Clear,160,2012-10-03 19:53:00
3:53 PM,77.0,27.0,16,29.78,10.0,SSE,23.0,28.8,N/A,,Clear,150,2012-10-03 20:53:00
4:53 PM,77.0,27.0,16,29.78,10.0,SSE,19.6,-,N/A,,Clear,150,2012-10-03 21:53:00
5:53 PM,75.9,28.9,18,29.78,10.0,SSE,13.8,-,N/A,,Clear,150,2012-10-03 22:53:00
6:53 PM,70.0,30.0,23,29.80,10.0,SE,9.2,-,N/A,,Clear,140,2012-10-03 23:53:00
7:53 PM,66.0,28.9,25,29.81,10.0,SE,10.4,-,N/A,,Clear,140,2012-10-04 00:53:00
8:53 PM,66.0,28.9,25,29.79,10.0,SE,11.5,-,N/A,,Clear,130,2012-10-04 01:53:00
9:53 PM,63.0,30.0,29,29.78,10.0,SE,12.7,-,N/A,,Partly Cloudy,140,2012-10-04 02:53:00
10:53 PM,63.0,32.0,31,29.75,10.0,SE,15.0,-,N/A,,Clear,140,2012-10-04 03:53:00
11:53 PM,61.0,33.1,35,29.73,10.0,South,15.0,-,N/A,,Clear,170,2012-10-04 04:53:00